DG7AA-13 Weather Reports


Display with metric or nautical units.
time (UTC)temp
F
wind
direction
speed
MPH
gust
MPH
rain 1hr
in
rain 24hr
in
rain mn
in
humidity
%
barometer
mb
20260508203533 49 0.0 0.0 0.00 0.00 0.00 91
20260508202523 49 0.0 0.0 0.00 0.00 0.00 91
20260508201522 50 0.0 0.0 0.00 0.00 0.00 90
20260508200520 50 0.0 0.0 0.00 0.00 0.00 89
20260508195532 50 0.0 0.0 0.00 0.00 0.00 89
20260508194525 50 139 0.0 1.0 0.00 0.00 0.00 89
20260508193522 50 0.0 0.0 0.00 0.00 0.00 88
20260508192526 50 0.0 0.0 0.00 0.00 0.00 88
20260508191531 51 0.0 0.0 0.00 0.00 0.00 88
20260508190523 51 176 0.0 1.0 0.00 0.00 0.00 87
20260508185533 51 182 0.0 2.0 0.00 0.00 0.00 85
20260508184527 52 159 1.0 2.0 0.00 0.00 0.00 86
20260508183546 52 168 0.0 3.0 0.00 0.00 0.00 86
20260508182523 52 0.0 0.0 0.00 0.00 0.00 86
20260508181532 52 0.0 0.0 0.00 0.00 0.00 86
20260508180523 52 0.0 1.0 0.00 0.00 0.00 85
20260508175531 53 0.0 1.0 0.00 0.00 0.00 85
20260508174526 53 0.0 0.0 0.00 0.00 0.00 85
20260508173542 53 0.0 0.0 0.00 0.00 0.00 83
20260508172539 53 205 0.0 1.0 0.00 0.00 0.00 82
20260508171549 53 0.0 0.0 0.00 0.00 0.00 81
20260508170526 53 166 0.0 1.0 0.00 0.00 0.00 81
20260508165535 53 167 0.0 2.0 0.00 0.00 0.00 80
20260508164523 53 168 0.0 2.0 0.00 0.00 0.00 79
20260508163534 53 144 0.0 1.0 0.00 0.00 0.00 80
20260508162520 53 151 0.0 1.0 0.00 0.00 0.00 80
20260508161535 53 177 0.0 2.0 0.00 0.00 0.00 79
20260508160523 53 164 0.0 2.0 0.00 0.00 0.00 80
20260508155528 53 168 1.0 3.0 0.00 0.00 0.00 79
20260508154525 53 180 0.0 2.0 0.00 0.00 0.00 80
20260508153526 53 157 1.0 3.0 0.00 0.00 0.00 79
20260508152527 54 158 0.0 2.0 0.00 0.00 0.00 78
20260508151534 54 146 1.0 4.0 0.00 0.00 0.00 78
20260508150523 54 143 0.0 2.0 0.00 0.00 0.00 78
20260508145532 54 146 1.0 2.0 0.00 0.00 0.00 77
20260508144524 54 151 1.0 2.0 0.00 0.00 0.00 77
20260508143532 54 154 1.0 3.0 0.00 0.00 0.00 76
20260508142533 55 175 1.0 2.0 0.00 0.00 0.00 78
20260508141526 55 161 0.0 2.0 0.00 0.00 0.00 77
20260508140523 55 348 1.0 2.0 0.00 0.00 0.00 76
20260508135525 55 323 0.0 2.0 0.00 0.00 0.00 75
20260508134523 55 335 0.0 2.0 0.00 0.00 0.00 77
20260508133535 54 172 0.0 2.0 0.00 0.00 0.00 77
20260508132527 54 174 1.0 2.0 0.00 0.00 0.00 78
20260508131534 54 167 1.0 3.0 0.00 0.00 0.00 77
20260508130523 55 184 0.0 2.0 0.00 0.00 0.00 77
20260508125532 55 172 0.0 2.0 0.00 0.00 0.00 78
20260508124524 54 187 1.0 2.0 0.00 0.00 0.00 77
20260508123519 54 190 2.0 4.0 0.00 0.00 0.00 74
20260508122538 54 171 1.0 4.0 0.00 0.00 0.00 77
20260508121531 55 173 1.0 4.0 0.00 0.00 0.00 76
20260508120528 55 145 1.0 4.0 0.00 0.00 0.00 77
20260508115528 55 125 1.0 2.0 0.00 0.00 0.00 77
20260508114523 55 145 1.0 4.0 0.00 0.00 0.00 76
20260508113534 54 156 1.0 4.0 0.00 0.00 0.00 76
20260508112523 54 175 1.0 4.0 0.00 0.00 0.00 76
20260508111519 54 150 1.0 4.0 0.00 0.00 0.00 79
20260508110526 53 175 2.0 4.0 0.00 0.00 0.00 78
20260508105531 53 183 1.0 3.0 0.00 0.00 0.00 79
20260508104524 53 172 2.0 5.0 0.00 0.00 0.00 78
20260508103535 53 159 2.0 4.0 0.00 0.00 0.00 78
20260508102526 53 174 2.0 6.0 0.00 0.00 0.00 78
20260508101532 53 173 2.0 5.0 0.00 0.00 0.00 79
20260508100527 52 164 2.0 3.0 0.00 0.00 0.00 82
20260508095528 52 188 1.0 4.0 0.00 0.00 0.00 83
20260508094523 51 165 1.0 2.0 0.00 0.00 0.00 85
20260508093533 51 168 1.0 4.0 0.00 0.00 0.00 85
20260508092525 51 170 0.0 2.0 0.00 0.00 0.00 85
20260508091531 51 174 1.0 3.0 0.00 0.00 0.00 84
20260508090523 51 190 1.0 2.0 0.00 0.00 0.00 85
20260508085525 51 161 1.0 3.0 0.00 0.00 0.00 84
20260508084519 51 148 1.0 3.0 0.00 0.00 0.00 83
20260508083526 52 145 1.0 4.0 0.00 0.00 0.00 83
20260508082523 52 160 1.0 2.0 0.00 0.00 0.00 84
20260508081525 52 161 1.0 3.0 0.00 0.00 0.00 83
20260508080527 52 195 1.0 3.0 0.00 0.00 0.00 82
20260508075531 52 167 1.0 2.0 0.00 0.00 0.00 87
20260508074524 51 334 0.0 2.0 0.00 0.00 0.00 88
20260508073546 51 352 1.0 2.0 0.00 0.00 0.00 87
20260508072526 52 0.0 1.0 0.00 0.00 0.00 88
20260508071534 51 0.0 1.0 0.00 0.00 0.00 89
20260508070526 50 161 0.0 2.0 0.00 0.00 0.00 89
20260508065523 50 160 1.0 3.0 0.00 0.00 0.00 89
20260508064523 49 351 1.0 2.0 0.00 0.00 0.00 90
20260508063522 49 337 0.0 1.0 0.00 0.00 0.00 92
20260508062523 48 355 0.0 2.0 0.00 0.00 0.00 94
20260508061531 47 331 1.0 3.0 0.00 0.00 0.00 94
20260508060520 48 345 0.0 2.0 0.00 0.00 0.00 95
20260508055521 47 331 0.0 2.0 0.00 0.00 0.00 95
20260508054524 47 338 1.0 3.0 0.00 0.00 0.00 96
20260508053533 47 315 0.0 2.0 0.00 0.00 0.00 97
20260508052524 47 347 1.0 2.0 0.00 0.00 0.00 97
20260508051531 47 348 1.0 2.0 0.00 0.00 0.00 98
20260508050528 46 349 1.0 3.0 0.00 0.00 0.00 98
20260508045519 46 351 1.0 2.0 0.00 0.00 0.00 98
20260508044526 46 353 1.0 3.0 0.00 0.00 0.00 99
20260508043531 46 355 0.0 2.0 0.00 0.00 0.00 99
20260508042528 46 0.0 0.0 0.00 0.00 0.00 99
20260508041534 46 354 0.0 1.0 0.00 0.00 0.00 99
20260508040524 46 0.0 0.0 0.00 0.00 0.00 99
20260508035534 45 0.0 0.0 0.00 0.00 0.00 99
20260508034524 45 0.0 0.0 0.00 0.00 0.00 99
20260508033525 45 0.0 0.0 0.00 0.00 0.00 99
20260508032526 45 0.0 0.0 0.00 0.00 0.00 99
20260508031531 45 0.0 0.0 0.00 0.00 0.00 99
20260508030524 45 0.0 0.0 0.00 0.00 0.00 99
20260508025534 46 0.0 0.0 0.00 0.00 0.00 99
20260508024526 46 0.0 0.0 0.00 0.00 0.00 99
20260508023535 46 0.0 0.0 0.00 0.00 0.00 99
20260508022523 46 0.0 0.0 0.00 0.00 0.00 99
20260508021528 46 0.0 0.0 0.00 0.00 0.00 99
20260508020526 46 0.0 0.0 0.00 0.00 0.00 99
20260508015531 46 0.0 0.0 0.00 0.00 0.00 99
20260508014524 46 0.0 0.0 0.00 0.00 0.00 99
20260508013528 46 0.0 0.0 0.00 0.00 0.00 98
20260508012526 46 0.0 0.0 0.00 0.00 0.00 98
20260508011532 46 0.0 0.0 0.00 0.00 0.00 98
20260508010519 46 0.0 0.0 0.00 0.00 0.00 98
20260508005531 46 0.0 0.0 0.00 0.00 0.00 98
20260508004527 46 0.0 0.0 0.00 0.00 0.00 98
20260508003525 46 0.0 0.0 0.00 0.00 0.00 98
20260508002526 46 327 0.0 1.0 0.00 0.00 0.00 98
20260508001531 46 355 0.0 1.0 0.00 0.00 0.00 98
20260508000523 46 353 0.0 2.0 0.00 0.00 0.00 98
20260507235522 46 0.0 0.0 0.00 0.00 0.00 98
20260507234523 46 0.0 0.0 0.00 0.00 0.00 98
20260507233532 46 0.0 0.0 0.00 0.00 0.00 98
20260507232523 46 0.0 0.0 0.00 0.00 0.00 98
20260507231531 46 0.0 0.0 0.00 0.00 0.00 98
20260507230523 46 0.0 0.0 0.00 0.00 0.00 98
20260507225522 46 0.0 0.0 0.00 0.00 0.00 98
20260507224523 46 0.0 0.0 0.00 0.00 0.00 98
20260507223531 46 0.0 0.0 0.00 0.00 0.00 98
20260507222523 46 0.0 0.0 0.00 0.00 0.00 98
20260507221536 46 1 0.0 1.0 0.00 0.00 0.00 98
20260507220527 46 0.0 0.0 0.00 0.00 0.00 98
20260507215536 46 0.0 0.0 0.00 0.00 0.00 98
20260507214524 46 0.0 0.0 0.00 0.00 0.00 98
20260507213531 46 0.0 0.0 0.00 0.00 0.00 97
20260507212523 46 0.0 0.0 0.00 0.00 0.00 97
20260507211531 46 0.0 0.0 0.00 0.00 0.00 97
20260507210523 46 0.0 0.0 0.00 0.00 0.00 97
20260507205531 46 0.0 0.0 0.00 0.00 0.00 97
20260507204525 46 0.0 0.0 0.00 0.00 0.00 97